This is the latest recevied weather packets stored in our database for station/object N3WAX-1. If no packets are shown the sender has not sent any weather packets the latest 10 day(s).
| Time | Temp. | Humidity | Pressure | Rain* | Wind** | Luminosity | Snow |
|---|---|---|---|---|---|---|---|
| 1777912292 | 19.44° C | 48% | 1013.1 hPa | 0 mm | - | 937 W/m² | - |
| 1777911060 | 18.89° C | 47% | 1013.3 hPa | 0 mm | - | 926 W/m² | - |
| 1777910137 | 18.89° C | 49% | 1013.7 hPa | 0 mm | - | 912 W/m² | - |
| 1777909228 | 18.33° C | 46% | 1014 hPa | 0 mm | - | 902 W/m² | - |
| 1777907729 | 18.33° C | 48% | 1013.9 hPa | 0 mm | - | 872 W/m² | - |
| 1777906528 | 17.78° C | 51% | 1014.1 hPa | 0 mm | - | 835 W/m² | - |
| 1777904417 | 16.67° C | 59% | 1014.1 hPa | 0 mm | - | 763 W/m² | - |
| 1777902918 | 15.56° C | 62% | 1014.1 hPa | 0 mm | - | 700 W/m² | - |
| 1777901413 | 15° C | 65% | 1014.5 hPa | 0 mm | - | 631 W/m² | - |
| 1777900214 | 14.44° C | 67% | 1014.6 hPa | 0 mm | - | 571 W/m² | - |
| 1777899314 | 13.33° C | 70% | 1014.6 hPa | 0 mm | - | 524 W/m² | - |
| 1777897515 | 12.22° C | 76% | 1014.8 hPa | 0 mm | - | 292 W/m² | - |
| 1777896010 | 11.11° C | 76% | 1014.7 hPa | 0 mm | - | 265 W/m² | - |
| 1777893551 | 9.44° C | 74% | 1014.8 hPa | 0 mm | - | 60 W/m² | - |
| 1777892939 | 8.89° C | 74% | 1014.8 hPa | 0 mm | - | 200 W/m² | - |
| 1777892628 | 8.89° C | 74% | 1014.8 hPa | 0 mm | - | 149 W/m² | - |
| 1777892016 | 7.78° C | 74% | 1014.8 hPa | 0 mm | - | 109 W/m² | - |
| 1777891707 | 7.78° C | 75% | 1014.8 hPa | 0 mm | - | 88 W/m² | - |
| 1777891374 | 6.67° C | 75% | 1014.8 hPa | 0 mm | - | 56 W/m² | - |
| 1777890173 | 6.11° C | 77% | 1015 hPa | 0 mm | - | 28 W/m² | - |
| 1777888635 | 6.11° C | 74% | 1015 hPa | 0 mm | - | 0 W/m² | - |
| 1777887713 | 6.67° C | 73% | 1015.1 hPa | 0 mm | - | 0 W/m² | - |
| 1777886172 | 6.67° C | 72% | 1015.1 hPa | 0 mm | - | 0 W/m² | - |
| 1777884023 | 5.56° C | 73% | 1015.1 hPa | 0 mm | - | 0 W/m² | - |
| 1777883100 | 6.67° C | 69% | 1015.1 hPa | 0 mm | - | 0 W/m² | - |
* Rain latest hour (hover to see other rain measurements)
** Current wind speed in m/s (hover to see current wind gust speed)